Location: Amon Carter Post Office
(32.8281°N, 97.0484°W)
Time: 20:29:01
(UTC+00:00)

SL-4 R/B - Pass Details

Date: 11 July 2022
Orbit: 425 x 653 km, 51.6° (Epoch: 08 August)

Event Time Altitude Azimuth Distance (km) Brightness Sun altitude
Rises 02:10:10 0° 202° (SSW) 2,389 5.2 -6.5°
Reaches altitude 10° 02:12:28 10° 189° (S) 1,512 4.0 -7.0°
Maximum altitude 02:15:22 27° 130° (SE) 849 2.4 -7.5°
Drops below altitude 10° 02:18:16 10° 70° (ENE) 1,514 3.9 -8.0°
Sets 02:20:34 0° 58° (ENE) 2,393 5.0 -8.4°
